K5BWX Weather Reports


time (UTC)temp
C
wind
direction
speed
KPH
gust
KPH
rain 1hr
cm
rain 24hr
cm
rain mn
cm
humidity
%
barometer
mb
20260504042109 11 191 1.6 4.8 0.00 0.00 0.00 68 1018.1
20260504042002 11 195 1.6 4.8 0.00 0.00 0.00 68 1018.0
20260504041904 11 188 1.6 4.8 0.00 0.00 0.00 68 1018.2
20260504041803 11 191 1.6 4.8 0.00 0.00 0.00 68 1018.2
20260504041726 11 192 3.2 4.8 0.00 0.00 0.00 67 1018.2
20260504041714 11 192 1.6 4.8 0.00 0.00 0.00 67 1018.3
20260504041455 11 192 3.2 4.8 0.00 0.00 0.00 67 1018.3
20260504041355 11 190 3.2 4.8 0.00 0.00 0.00 67 1018.2
20260504041254 11 190 3.2 4.8 0.00 0.00 0.00 67 1018.3
20260504041156 11 190 3.2 4.8 0.00 0.00 0.00 67 1018.3
20260504041053 11 192 3.2 4.8 0.00 0.00 0.00 67 1018.2
20260504040952 11 190 3.2 8.0 0.00 0.00 0.00 67 1018.2
20260504040851 11 190 3.2 8.0 0.00 0.00 0.00 67 1018.3
20260504040752 11 190 3.2 8.0 0.00 0.00 0.00 67 1018.3
20260504040649 11 184 3.2 8.0 0.00 0.00 0.00 67 1018.3
20260504040548 11 178 3.2 8.0 0.00 0.00 0.00 67 1018.3
20260504040444 11 178 3.2 8.0 0.00 0.00 0.00 67 1018.3
20260504040408 11 178 3.2 8.0 0.00 0.00 0.00 66 1018.3
20260504040355 11 178 3.2 8.0 0.00 0.00 0.00 67 1018.3
20260504040139 11 178 3.2 8.0 0.00 0.00 0.00 66 1018.3
20260504040037 11 179 3.2 6.4 0.00 0.00 0.00 66 1018.3
20260504035933 11 179 3.2 8.0 0.00 0.00 0.00 66 1018.3
20260504035832 11 179 3.2 8.0 0.00 0.00 0.00 66 1018.4
20260504035731 11 180 3.2 8.0 0.00 0.00 0.00 66 1018.3
20260504035630 11 176 3.2 8.0 0.00 0.00 0.00 66 1018.4
20260504035531 12 176 3.2 8.0 0.00 0.00 0.00 66 1018.4
20260504035424 12 176 3.2 8.0 0.00 0.00 0.00 66 1018.3
20260504035326 12 177 3.2 8.0 0.00 0.00 0.00 66 1018.4
20260504035254 12 196 3.2 8.0 0.00 0.00 0.00 66 1018.4
20260504035241 12 173 3.2 8.0 0.00 0.00 0.00 65 1018.4
20260504035025 12 181 3.2 8.0 0.00 0.00 0.00 65 1018.4
20260504034918 12 180 3.2 8.0 0.00 0.00 0.00 65 1018.4
20260504034818 12 163 3.2 8.0 0.00 0.00 0.00 65 1018.4
20260504034717 12 156 3.2 9.7 0.00 0.00 0.00 65 1018.4
20260504034618 12 146 3.2 9.7 0.00 0.00 0.00 65 1018.4
20260504034540 12 172 3.2 9.7 0.00 0.00 0.00 65 1018.6
20260504034528 12 176 3.2 9.7 0.00 0.00 0.00 65 1018.4
20260504034310 12 181 3.2 9.7 0.00 0.00 0.00 65 1018.6
20260504034210 12 188 3.2 9.7 0.00 0.00 0.00 65 1018.6
20260504034112 12 179 3.2 9.7 0.00 0.00 0.00 64 1018.6
20260504034034 12 178 3.2 9.7 0.00 0.00 0.00 64 1018.6
20260504034022 12 180 3.2 9.7 0.00 0.00 0.00 64 1018.6
20260504033807 12 162 3.2 11.3 0.00 0.00 0.00 64 1018.6
20260504033707 12 178 3.2 11.3 0.00 0.00 0.00 64 1018.6
20260504033606 12 192 3.2 11.3 0.00 0.00 0.00 64 1018.7
20260504033529 12 190 3.2 11.3 0.00 0.00 0.00 64 1018.6
20260504033517 12 198 3.2 11.3 0.00 0.00 0.00 64 1018.7
20260504033256 12 192 3.2 11.3 0.00 0.00 0.00 64 1018.6
20260504033156 12 181 3.2 11.3 0.00 0.00 0.00 64 1018.6
20260504033056 12 183 3.2 11.3 0.00 0.00 0.00 64 1018.7
20260504032956 12 176 3.2 11.3 0.00 0.00 0.00 64 1018.6
20260504032857 12 190 3.2 11.3 0.00 0.00 0.00 63 1018.4
20260504032756 12 171 4.8 11.3 0.00 0.00 0.00 63 1018.6
20260504032656 12 194 3.2 11.3 0.00 0.00 0.00 63 1018.6
20260504032558 12 165 3.2 11.3 0.00 0.00 0.00 63 1018.6
20260504032456 12 191 4.8 11.3 0.00 0.00 0.00 63 1018.6
20260504032357 12 173 4.8 11.3 0.00 0.00 0.00 63 1018.6
20260504032256 12 172 4.8 11.3 0.00 0.00 0.00 63 1018.6
20260504032158 12 171 4.8 11.3 0.00 0.00 0.00 63 1018.7
20260504032055 12 170 4.8 11.3 0.00 0.00 0.00 63 1018.6
20260504031954 12 175 4.8 11.3 0.00 0.00 0.00 63 1018.6
20260504031856 12 182 4.8 11.3 0.00 0.00 0.00 63 1018.7
20260504031755 12 181 4.8 9.7 0.00 0.00 0.00 63 1018.6
20260504031651 12 184 4.8 9.7 0.00 0.00 0.00 63 1018.6
20260504031615 12 182 3.2 9.7 0.00 0.00 0.00 62 1018.4
20260504031603 12 181 4.8 9.7 0.00 0.00 0.00 63 1018.4
20260504031349 12 175 3.2 9.7 0.00 0.00 0.00 62 1018.6
20260504031249 12 197 3.2 9.7 0.00 0.00 0.00 62 1018.6
20260504031148 12 187 3.2 9.7 0.00 0.00 0.00 62 1018.7
20260504031046 12 188 3.2 9.7 0.00 0.00 0.00 62 1018.6
20260504030946 12 186 3.2 9.7 0.00 0.00 0.00 62 1018.7
20260504030845 12 186 3.2 9.7 0.00 0.00 0.00 62 1018.7
20260504030743 12 188 3.2 9.7 0.00 0.00 0.00 62 1018.7
20260504030637 12 205 3.2 8.0 0.00 0.00 0.00 62 1018.6
20260504030537 12 182 3.2 8.0 0.00 0.00 0.00 61 1018.7
20260504030438 12 181 3.2 8.0 0.00 0.00 0.00 62 1018.7
20260504030335 12 188 3.2 8.0 0.00 0.00 0.00 61 1018.7
20260504030233 12 194 3.2 8.0 0.00 0.00 0.00 61 1018.8
20260504030152 12 164 3.2 6.4 0.00 0.00 0.00 61 1018.6
20260504030140 12 205 3.2 8.0 0.00 0.00 0.00 61 1018.7
20260504025927 12 165 3.2 6.4 0.00 0.00 0.00 61 1018.6
20260504025827 12 173 3.2 6.4 0.00 0.00 0.00 61 1018.7
20260504025748 12 183 3.2 6.4 0.00 0.00 0.00 61 1018.7
20260504025738 12 182 3.2 6.4 0.00 0.00 0.00 61 1018.7
20260504025520 12 178 3.2 6.4 0.00 0.00 0.00 61 1018.7
20260504025421 12 180 3.2 6.4 0.00 0.00 0.00 61 1018.7
20260504025321 12 178 3.2 6.4 0.00 0.00 0.00 61 1018.8
20260504025244 12 194 3.2 6.4 0.00 0.00 0.00 61 1018.6
20260504025233 12 178 3.2 6.4 0.00 0.00 0.00 61 1018.7
20260504025038 12 185 3.2 6.4 0.00 0.00 0.00 60 1018.4
20260504025032 12 188 3.2 6.4 0.00 0.00 0.00 61 1018.4
20260504025028 12 170 3.2 6.4 0.00 0.00 0.00 60 1018.6
20260504025019 12 192 3.2 6.4 0.00 0.00 0.00 60 1018.7
20260504025000 12 194 3.2 6.4 0.00 0.00 0.00 61 1018.6
20260504024945 12 199 3.2 6.4 0.00 0.00 0.00 60 1018.6
20260504024550 12 205 3.2 6.4 0.00 0.00 0.00 61 1018.6
20260504024426 12 206 3.2 6.4 0.00 0.00 0.00 60 1018.6
20260504024211 12 186 3.2 11.3 0.00 0.00 0.00 60 1018.4
20260504024110 12 192 3.2 11.3 0.00 0.00 0.00 60 1018.4
20260504024011 13 193 3.2 11.3 0.00 0.00 0.00 60 1018.6
20260504023911 12 168 3.2 11.3 0.00 0.00 0.00 60 1018.4
20260504023808 13 167 3.2 11.3 0.00 0.00 0.00 60 1018.4
20260504023708 13 168 3.2 11.3 0.00 0.00 0.00 60 1018.4
20260504023609 13 183 3.2 11.3 0.00 0.00 0.00 60 1018.3
20260504023532 13 185 4.8 11.3 0.00 0.00 0.00 59 1018.2
20260504023528 13 178 4.8 11.3 0.00 0.00 0.00 60 1018.3
20260504023517 13 182 3.2 11.3 0.00 0.00 0.00 60 1018.3
20260504023501 13 182 4.8 11.3 0.00 0.00 0.00 60 1018.4
20260504023222 13 168 4.8 11.3 0.00 0.00 0.00 60 1018.4
20260504023007 13 182 3.2 11.3 0.00 0.00 0.00 60 1018.2
20260504022908 13 200 3.2 11.3 0.00 0.00 0.00 59 1018.2
20260504022804 13 190 3.2 11.3 0.00 0.00 0.00 60 1018.2
20260504022704 13 192 3.2 11.3 0.00 0.00 0.00 59 1018.2
20260504022602 13 150 3.2 11.3 0.00 0.00 0.00 59 1018.0
20260504022503 13 176 3.2 11.3 0.00 0.00 0.00 59 1018.0
20260504022402 13 184 3.2 11.3 0.00 0.00 0.00 60 1018.1
20260504022304 13 188 3.2 9.7 0.00 0.00 0.00 59 1018.1
20260504022200 13 182 3.2 9.7 0.00 0.00 0.00 60 1018.0
20260504022100 13 182 3.2 9.7 0.00 0.00 0.00 60 1018.0
20260504022001 13 177 3.2 9.7 0.00 0.00 0.00 60 1018.1
20260504021949 13 175 3.2 9.7 0.00 0.00 0.00 59 1017.9
20260504021933 13 176 3.2 9.7 0.00 0.00 0.00 59 1017.9
20260504021812 13 176 3.2 9.7 0.00 0.00 0.00 59 1017.9
20260504021557 13 192 3.2 9.7 0.00 0.00 0.00 59 1017.9
20260504021457 13 182 3.2 9.7 0.00 0.00 0.00 60 1017.9
20260504021422 13 187 3.2 9.7 0.00 0.00 0.00 59 1017.8
20260504021411 13 188 3.2 9.7 0.00 0.00 0.00 59 1017.8
20260504021153 13 188 3.2 9.7 0.00 0.00 0.00 59 1017.8
20260504021052 13 180 3.2 9.7 0.00 0.00 0.00 59 1017.8
20260504020953 13 179 4.8 9.7 0.00 0.00 0.00 59 1017.8
20260504020850 13 173 4.8 9.7 0.00 0.00 0.00 59 1017.7
20260504020815 13 194 4.8 9.7 0.00 0.00 0.00 59 1017.8
20260504020803 13 194 4.8 9.7 0.00 0.00 0.00 59 1017.8
20260504020614 13 187 3.2 9.7 0.00 0.00 0.00 59 1017.7
20260504020609 13 178 3.2 9.7 0.00 0.00 0.00 59 1017.7
20260504020559 13 194 4.8 9.7 0.00 0.00 0.00 59 1017.7
20260504020538 13 190 4.8 9.7 0.00 0.00 0.00 59 1017.8
20260504020416 13 152 3.2 9.7 0.00 0.00 0.00 59 1017.7
20260504020043 13 174 3.2 9.7 0.00 0.00 0.00 59 1017.7
20260504015942 13 167 3.2 9.7 0.00 0.00 0.00 59 1017.8
20260504015842 13 186 3.2 9.7 0.00 0.00 0.00 59 1017.7
20260504015740 13 183 3.2 9.7 0.00 0.00 0.00 59 1017.7
20260504015640 13 183 3.2 9.7 0.00 0.00 0.00 59 1017.7
20260504015538 13 182 3.2 9.7 0.00 0.00 0.00 59 1017.7
20260504015503 13 192 3.2 9.7 0.00 0.00 0.00 59 1017.7
20260504015452 13 192 3.2 9.7 0.00 0.00 0.00 59 1017.6
20260504015235 13 194 3.2 9.7 0.00 0.00 0.00 59 1017.7
20260504015129 13 158 3.2 9.7 0.00 0.00 0.00 58 1017.6
20260504015028 13 164 3.2 9.7 0.00 0.00 0.00 58 1017.7
20260504014931 13 163 3.2 9.7 0.00 0.00 0.00 59 1017.6
20260504014925 13 186 3.2 8.0 0.00 0.00 0.00 57 1017.7
20260504014909 13 163 3.2 9.7 0.00 0.00 0.00 58 1017.7
20260504014753 13 207 3.2 8.0 0.00 0.00 0.00 57 1017.7
20260504014748 13 208 3.2 8.0 0.00 0.00 0.00 57 1017.6
20260504014743 13 186 3.2 8.0 0.00 0.00 0.00 58 1017.7
20260504014735 13 161 3.2 9.7 0.00 0.00 0.00 58 1017.7
20260504014711 13 180 3.2 9.7 0.00 0.00 0.00 58 1017.6
20260504014558 13 201 3.2 8.0 0.00 0.00 0.00 57 1017.7
20260504014545 13 188 3.2 9.7 0.00 0.00 0.00 58 1017.7
20260504014422 13 188 3.2 9.7 0.00 0.00 0.00 58 1017.6
20260504014403 13 185 3.2 8.0 0.00 0.00 0.00 58 1017.7
20260504014234 13 186 3.2 8.0 0.00 0.00 0.00 58 1017.6
20260504013839 13 204 3.2 8.0 0.00 0.00 0.00 57 1017.7
20260504013507 13 186 3.2 8.0 0.00 0.00 0.00 57 1017.7
20260504013407 14 196 3.2 8.0 0.00 0.00 0.00 57 1017.7
20260504013307 14 184 3.2 8.0 0.00 0.00 0.00 57 1017.6
20260504013206 14 170 3.2 6.4 0.00 0.00 0.00 56 1017.7
20260504013058 14 170 3.2 6.4 0.00 0.00 0.00 57 1017.7
20260504012956 14 169 3.2 6.4 0.00 0.00 0.00 56 1017.7
20260504012923 14 167 1.6 6.4 0.00 0.00 0.00 57 1017.7
20260504012911 14 168 3.2 6.4 0.00 0.00 0.00 57 1017.7
20260504012657 14 198 1.6 6.4 0.00 0.00 0.00 57 1017.7
20260504012553 14 188 1.6 6.4 0.00 0.00 0.00 57 1017.7
20260504012452 14 186 1.6 6.4 0.00 0.00 0.00 57 1017.8
20260504012353 14 182 1.6 4.8 0.00 0.00 0.00 57 1017.7
20260504012253 14 182 1.6 4.8 0.00 0.00 0.00 56 1017.7
20260504012152 14 192 1.6 4.8 0.00 0.00 0.00 57 1017.7
20260504012052 14 188 1.6 6.4 0.00 0.00 0.00 56 1017.8
20260504011951 14 188 1.6 6.4 0.00 0.00 0.00 56 1017.8
20260504011848 14 186 1.6 6.4 0.00 0.00 0.00 56 1017.8
20260504011748 14 198 1.6 6.4 0.00 0.00 0.00 57 1017.7
20260504011649 14 205 1.6 6.4 0.00 0.00 0.00 57 1017.7
20260504011547 14 205 1.6 6.4 0.00 0.00 0.00 57 1017.7
20260504011513 14 188 1.6 6.4 0.00 0.00 0.00 57 1017.6
20260504011502 14 202 1.6 6.4 0.00 0.00 0.00 57 1017.6
20260504011335 14 188 1.6 6.4 0.00 0.00 0.00 56 1017.6
20260504011320 14 188 1.6 6.4 0.00 0.00 0.00 57 1017.7
20260504011158 14 188 1.6 6.4 0.00 0.00 0.00 56 1017.6
20260504010941 14 188 1.6 6.4 0.00 0.00 0.00 56 1017.6
20260504010841 14 188 1.6 6.4 0.00 0.00 0.00 56 1017.6
20260504010806 14 189 1.6 6.4 0.00 0.00 0.00 55 1017.5
20260504010755 14 189 1.6 6.4 0.00 0.00 0.00 56 1017.6
20260504010537 14 189 1.6 6.4 0.00 0.00 0.00 56 1017.5
20260504010439 14 189 1.6 6.4 0.00 0.00 0.00 56 1017.7
20260504010403 14 190 1.6 6.4 0.00 0.00 0.00 55 1017.5
20260504010352 14 190 1.6 6.4 0.00 0.00 0.00 55 1017.5
20260504010138 14 190 1.6 6.4 0.00 0.00 0.00 55 1017.7
20260504010107 14 187 1.6 3.2 0.00 0.00 0.00 55 1017.6
20260504010055 14 186 1.6 3.2 0.00 0.00 0.00 55 1017.6
20260504005838 14 187 1.6 3.2 0.00 0.00 0.00 55 1017.6
20260504005739 14 185 1.6 3.2 0.00 0.00 0.00 55 1017.7
20260504005638 14 185 1.6 4.8 0.00 0.00 0.00 55 1017.7
20260504005538 14 184 1.6 4.8 0.00 0.00 0.00 55 1017.7
20260504005505 14 186 1.6 4.8 0.00 0.00 0.00 55 1017.7
20260504005452 14 184 1.6 4.8 0.00 0.00 0.00 55 1017.7
20260504005238 14 186 1.6 4.8 0.00 0.00 0.00 55 1017.7
20260504005139 15 189 1.6 4.8 0.00 0.00 0.00 54 1017.7
20260504005037 15 189 1.6 4.8 0.00 0.00 0.00 54 1017.7
20260504004937 15 189 1.6 4.8 0.00 0.00 0.00 55 1017.7
20260504004836 15 189 1.6 4.8 0.00 0.00 0.00 55 1017.7
20260504004736 15 190 1.6 4.8 0.00 0.00 0.00 54 1017.7
20260504004637 15 190 1.6 4.8 0.00 0.00 0.00 54 1017.7
20260504004537 15 190 1.6 4.8 0.00 0.00 0.00 54 1017.7
20260504004437 15 190 1.6 4.8 0.00 0.00 0.00 53 1017.7
20260504004336 15 190 1.6 4.8 0.00 0.00 0.00 53 1017.7
20260504004303 15 190 1.6 4.8 0.00 0.00 0.00 53 1017.6
20260504004251 15 190 1.6 4.8 0.00 0.00 0.00 53 1017.7
20260504004036 15 190 1.6 4.8 0.00 0.00 0.00 53 1017.6
20260504003936 15 190 1.6 4.8 0.00 0.00 0.00 54 1017.7
20260504003903 15 190 1.6 4.8 0.00 0.00 0.00 53 1017.6
20260504003851 15 190 1.6 4.8 0.00 0.00 0.00 53 1017.6
20260504003637 15 190 1.6 3.2 0.00 0.00 0.00 53 1017.7
20260504003603 15 190 0.0 3.2 0.00 0.00 0.00 53 1017.7
20260504003552 15 190 1.6 3.2 0.00 0.00 0.00 53 1017.7
20260504003337 15 190 0.0 3.2 0.00 0.00 0.00 52 1017.7
20260504003236 15 190 0.0 4.8 0.00 0.00 0.00 53 1017.7
20260504003137 15 189 0.0 4.8 0.00 0.00 0.00 52 1017.7
20260504003106 15 189 0.0 4.8 0.00 0.00 0.00 52 1017.8
20260504003053 15 189 0.0 4.8 0.00 0.00 0.00 52 1017.7
20260504002837 15 188 0.0 4.8 0.00 0.00 0.00 52 1017.8
20260504002736 15 188 0.0 4.8 0.00 0.00 0.00 52 1017.8
20260504002636 15 187 0.0 4.8 0.00 0.00 0.00 52 1017.8
20260504002538 15 187 0.0 4.8 0.00 0.00 0.00 52 1017.8
20260504002437 15 187 0.0 4.8 0.00 0.00 0.00 52 1017.8
20260504002333 15 187 0.0 4.8 0.00 0.00 0.00 53 1017.8
20260504002231 15 192 0.0 3.2 0.00 0.00 0.00 52 1017.9
20260504002132 15 190 0.0 3.2 0.00 0.00 0.00 53 1017.8
20260504002118 15 190 0.0 3.2 0.00 0.00 0.00 52 1017.9
20260504002113 15 190 0.0 3.2 0.00 0.00 0.00 52 1017.9
20260504002100 15 190 0.0 3.2 0.00 0.00 0.00 52 1017.9
20260504001758 15 190 0.0 3.2 0.00 0.00 0.00 52 1018.0
20260504001747 15 190 0.0 3.2 0.00 0.00 0.00 52 1018.0
20260504001533 15 190 0.0 3.2 0.00 0.00 0.00 52 1018.0
20260504001432 15 190 0.0 3.2 0.00 0.00 0.00 51 1018.0
20260504001332 15 190 1.6 3.2 0.00 0.00 0.00 51 1017.9
20260504001300 15 195 1.6 3.2 0.00 0.00 0.00 51 1018.0
20260504001247 15 190 1.6 3.2 0.00 0.00 0.00 51 1018.0
20260504001057 15 194 1.6 3.2 0.00 0.00 0.00 50 1018.1
20260504001047 15 194 1.6 3.2 0.00 0.00 0.00 50 1018.0
20260504000833 15 192 1.6 3.2 0.00 0.00 0.00 50 1018.0
20260504000733 15 194 1.6 3.2 0.00 0.00 0.00 50 1018.0
20260504000633 15 194 1.6 3.2 0.00 0.00 0.00 50 1018.1
20260504000532 15 194 1.6 3.2 0.00 0.00 0.00 50 1018.0
20260504000500 16 190 0.0 3.2 0.00 0.00 0.00 50 1018.1
20260504000447 16 194 1.6 3.2 0.00 0.00 0.00 50 1018.1
20260504000234 16 197 0.0 3.2 0.00 0.00 0.00 50 1018.1
20260504000131 16 196 0.0 3.2 0.00 0.00 0.00 50 1018.1
20260504000032 16 196 0.0 3.2 0.00 0.00 0.00 50 1018.1
20260503235932 16 197 0.0 3.2 0.00 0.00 0.00 50 1018.2
20260503235832 16 193 0.0 3.2 0.00 0.00 0.00 50 1018.1
20260503235731 16 193 0.0 1.6 0.00 0.00 0.00 50 1018.0
20260503235633 16 193 0.0 1.6 0.00 0.00 0.00 50 1018.2
20260503235532 16 192 0.0 1.6 0.00 0.00 0.00 50 1018.1
20260503235433 16 194 0.0 1.6 0.00 0.00 0.00 50 1018.0
20260503235332 16 194 0.0 1.6 0.00 0.00 0.00 50 1018.1
20260503235232 16 194 0.0 1.6 0.00 0.00 0.00 50 1018.0
20260503235132 16 194 0.0 3.2 0.00 0.00 0.00 50 1018.1
20260503235028 16 194 0.0 3.2 0.00 0.00 0.00 49 1018.1
20260503234952 16 195 0.0 3.2 0.00 0.00 0.00 49 1018.1
20260503234941 16 194 0.0 3.2 0.00 0.00 0.00 48 1018.1
20260503234726 16 195 0.0 3.2 0.00 0.00 0.00 49 1018.0
20260503234624 16 195 0.0 4.8 0.00 0.00 0.00 48 1018.1
20260503234519 16 195 0.0 4.8 0.00 0.00 0.00 49 1018.2
20260503234418 16 195 0.0 4.8 0.00 0.00 0.00 48 1018.1
20260503234344 16 195 0.0 4.8 0.00 0.00 0.00 48 1018.1
20260503234331 16 195 0.0 4.8 0.00 0.00 0.00 48 1018.0
20260503234136 16 195 0.0 4.8 0.00 0.03 0.00 48 1018.0
20260503234125 16 195 0.0 4.8 0.00 0.00 0.00 47 1018.0
20260503233909 16 195 0.0 4.8 0.00 0.03 0.00 48 1018.0
20260503233807 16 195 1.6 4.8 0.00 0.03 0.00 48 1018.0
20260503233709 16 195 1.6 4.8 0.00 0.03 0.00 48 1018.0
20260503233608 16 195 1.6 4.8 0.00 0.03 0.00 47 1018.0
20260503233503 16 195 1.6 4.8 0.00 0.03 0.00 47 1018.0
20260503233403 16 195 1.6 4.8 0.00 0.03 0.00 46 1017.9
20260503233302 16 197 1.6 4.8 0.00 0.03 0.00 46 1018.0
20260503233201 16 196 1.6 4.8 0.00 0.03 0.00 46 1017.9
20260503233123 16 282 0.0 6.4 0.00 0.03 0.00 46 1018.0
20260503233112 16 186 1.6 4.8 0.00 0.03 0.00 46 1017.9
20260503233056 16 211 0.0 6.4 0.00 0.03 0.00 46 1018.0
20260503232933 16 217 0.0 6.4 0.00 0.03 0.00 46 1018.0
20260503232808 16 241 0.0 6.4 0.00 0.03 0.00 47 1018.0
20260503232552 16 235 0.0 6.4 0.00 0.03 0.00 46 1018.0
20260503232452 16 236 0.0 6.4 0.00 0.03 0.00 46 1017.9
20260503232418 16 212 0.0 6.4 0.00 0.03 0.00 46 1018.0
20260503232406 16 236 0.0 6.4 0.00 0.03 0.00 46 1017.9
20260503232148 16 209 0.0 6.4 0.00 0.03 0.00 46 1017.9
20260503232048 16 211 1.6 6.4 0.00 0.03 0.00 46 1018.0
20260503231947 16 214 1.6 6.4 0.00 0.03 0.00 45 1017.9
20260503231849 16 215 1.6 6.4 0.00 0.03 0.00 45 1018.0
20260503231815 16 201 1.6 6.4 0.00 0.03 0.00 46 1018.0
20260503231802 16 247 1.6 6.4 0.00 0.03 0.00 46 1017.9
20260503231547 16 201 1.6 6.4 0.00 0.03 0.00 45 1018.0
20260503231444 16 200 1.6 6.4 0.00 0.03 0.00 46 1018.0
20260503231344 17 200 1.6 6.4 0.00 0.03 0.00 46 1018.1
20260503231243 17 201 1.6 6.4 0.00 0.03 0.00 44 1018.1
20260503231140 17 214 1.6 6.4 0.00 0.03 0.00 43 1018.1
20260503231041 16 113 1.6 6.4 0.00 0.03 0.00 44 1018.1
20260503230941 16 173 1.6 6.4 0.00 0.03 0.00 44 1018.2
20260503230838 16 249 1.6 9.7 0.00 0.03 0.00 45 1018.2
20260503230738 16 134 3.2 9.7 0.00 0.03 0.00 46 1018.1
20260503230636 17 111 3.2 12.9 0.00 0.03 0.00 46 1018.2
20260503230536 17 254 3.2 12.9 0.00 0.03 0.00 45 1018.2
20260503230433 17 281 3.2 12.9 0.00 0.03 0.00 46 1018.3
20260503230332 17 186 3.2 12.9 0.00 0.03 0.00 45 1018.2
20260503230231 17 193 3.2 12.9 0.00 0.03 0.00 45 1018.2
20260503230132 17 207 3.2 12.9 0.00 0.03 0.00 45 1018.2
20260503230032 17 175 3.2 12.9 0.00 0.03 0.00 47 1018.3
20260503225933 17 238 3.2 12.9 0.00 0.03 0.00 44 1018.3
20260503225853 17 182 3.2 11.3 0.00 0.03 0.00 45 1018.4
20260503225842 17 195 3.2 12.9 0.00 0.03 0.00 45 1018.3
20260503225825 17 244 3.2 12.9 0.00 0.03 0.00 45 1018.2
20260503225702 17 179 3.2 11.3 0.00 0.03 0.00 45 1018.3
20260503225538 17 194 3.2 11.3 0.00 0.03 0.00 46 1018.3
20260503225324 17 180 3.2 11.3 0.00 0.03 0.00 46 1018.4
20260503225217 17 180 1.6 11.3 0.00 0.03 0.00 45 1018.6
20260503225119 17 201 1.6 11.3 0.00 0.03 0.00 45 1018.4
20260503225018 17 200 1.6 11.3 0.00 0.03 0.00 46 1018.6
20260503224946 17 158 1.6 11.3 0.00 0.03 0.00 45 1018.6
20260503224933 17 196 1.6 11.3 0.00 0.03 0.00 45 1018.6
20260503224714 17 179 1.6 12.9 0.00 0.03 0.00 47 1018.6
20260503224612 17 181 1.6 12.9 0.00 0.03 0.00 46 1018.6
20260503224512 17 180 1.6 12.9 0.00 0.03 0.00 46 1018.7
20260503224413 17 279 1.6 12.9 0.00 0.03 0.00 47 1018.7
20260503224312 17 177 3.2 12.9 0.00 0.03 0.00 46 1018.7
20260503224207 17 187 3.2 12.9 0.00 0.03 0.00 45 1018.7
20260503224107 17 187 3.2 12.9 0.00 0.03 0.00 45 1018.7
20260503224006 17 187 3.2 12.9 0.00 0.03 0.00 45 1018.7
20260503223904 17 189 3.2 12.9 0.00 0.03 0.00 45 1018.6
20260503223802 17 138 1.6 12.9 0.00 0.03 0.00 45 1018.7
20260503223701 17 184 1.6 6.4 0.00 0.03 0.00 47 1018.7
20260503223600 17 184 3.2 6.4 0.00 0.03 0.00 46 1018.7
20260503223459 17 184 3.2 6.4 0.00 0.03 0.00 46 1018.7
20260503223441 17 178 1.6 6.4 0.00 0.03 0.00 45 1018.7
20260503223436 17 200 1.6 6.4 0.00 0.03 0.00 46 1018.7
20260503223422 17 200 1.6 6.4 0.00 0.03 0.00 45 1018.7
20260503223051 17 199 1.6 6.4 0.00 0.03 0.00 46 1018.7
20260503223018 17 225 1.6 6.4 0.00 0.03 0.00 45 1018.8
20260503223006 17 198 1.6 6.4 0.00 0.03 0.00 44 1018.7
20260503222750 17 179 1.6 6.4 0.00 0.03 0.00 44 1018.7
20260503222640 17 156 1.6 6.4 0.00 0.03 0.00 46 1018.7
20260503222541 17 178 1.6 6.4 0.00 0.03 0.00 46 1018.8
20260503222441 17 134 1.6 6.4 0.00 0.03 0.00 46 1018.7
20260503222408 17 240 1.6 6.4 0.00 0.03 0.00 47 1018.8
20260503222356 17 181 1.6 6.4 0.00 0.03 0.00 46 1018.7
20260503222140 17 140 1.6 6.4 0.00 0.03 0.00 50 1018.9
20260503222038 17 5 1.6 6.4 0.00 0.03 0.00 48 1018.7
20260503221939 17 5 1.6 6.4 0.00 0.03 0.00 50 1018.8
20260503221921 17 9 1.6 6.4 0.00 0.03 0.00 47 1018.7
20260503221916 17 63 1.6 6.4 0.00 0.03 0.00 47 1018.7
20260503221902 17 5 1.6 6.4 0.00 0.03 0.00 47 1018.8
20260503221530 17 49 1.6 6.4 0.00 0.03 0.00 46 1018.8
20260503221429 17 50 1.6 6.4 0.00 0.03 0.00 49 1018.8
20260503221331 17 53 1.6 6.4 0.00 0.03 0.00 51 1018.8
20260503221228 17 50 1.6 6.4 0.00 0.03 0.00 47 1018.8
20260503221118 17 50 1.6 6.4 0.00 0.03 0.00 47 1018.8
20260503221017 17 50 1.6 6.4 0.00 0.03 0.00 47 1018.8
20260503220918 17 50 1.6 6.4 0.00 0.03 0.00 46 1018.8
20260503220845 17 24 1.6 6.4 0.00 0.03 0.00 46 1018.8
20260503220833 17 51 1.6 6.4 0.00 0.03 0.00 46 1018.8
20260503220617 17 24 1.6 6.4 0.00 0.03 0.00 44 1018.8
20260503220516 17 275 1.6 6.4 0.00 0.03 0.00 44 1018.9
20260503220415 17 311 1.6 6.4 0.00 0.03 0.00 44 1018.9
20260503220314 17 306 1.6 6.4 0.00 0.03 0.00 46 1018.9
20260503220232 17 18 1.6 8.0 0.00 0.03 0.00 45 1019.1
20260503220227 17 200 1.6 6.4 0.00 0.03 0.00 48 1019.1
20260503220218 17 246 1.6 6.4 0.00 0.03 0.00 48 1019.0
20260503220158 17 355 1.6 6.4 0.00 0.03 0.00 45 1019.0
20260503220045 17 22 1.6 8.0 0.00 0.03 0.00 43 1019.0
20260503220040 17 180 1.6 6.4 0.00 0.03 0.00 46 1019.1
20260503220028 17 0 1.6 6.4 0.00 0.03 0.00 47 1019.0
20260503220012 17 35 1.6 6.4 0.00 0.03 0.00 48 1018.9
20260503215744 17 178 1.6 6.4 0.00 0.03 0.00 49 1019.0
20260503215730 17 180 1.6 6.4 0.00 0.03 0.00 45 1018.9
20260503215451 17 136 1.6 6.4 0.00 0.03 0.00 49 1018.9
20260503215447 17 158 1.6 6.4 0.00 0.03 0.00 48 1018.9
20260503215442 17 176 1.6 8.0 0.00 0.03 0.00 43 1019.0
20260503215427 17 136 1.6 6.4 0.00 0.03 0.00 49 1018.9
20260503215138 17 161 1.6 8.0 0.00 0.03 0.00 47 1019.0
20260503215015 17 163 1.6 8.0 0.00 0.03 0.00 44 1018.9
20260503214852 17 162 1.6 8.0 0.00 0.03 0.00 44 1019.0
20260503214835 17 162 1.6 8.0 0.00 0.03 0.00 44 1019.0
20260503214347 17 346 1.6 8.0 0.00 0.03 0.00 44 1019.1
20260503214246 17 346 1.6 8.0 0.00 0.03 0.00 48 1019.0
20260503214144 17 317 1.6 8.0 0.00 0.03 0.00 47 1019.1
20260503214033 17 234 1.6 8.0 0.00 0.03 0.00 49 1019.1
20260503213933 17 169 1.6 8.0 0.00 0.03 0.00 46 1019.1
20260503213834 17 159 1.6 8.0 0.00 0.03 0.00 51 1019.0
20260503213734 17 159 1.6 8.0 0.00 0.03 0.00 45 1018.9
20260503213634 17 161 1.6 8.0 0.00 0.03 0.00 44 1019.1
20260503213534 17 159 1.6 8.0 0.00 0.03 0.00 44 1019.0
20260503213432 17 355 1.6 8.0 0.00 0.03 0.00 45 1019.2
20260503213357 17 342 1.6 16.1 0.00 0.03 0.00 45 1019.1
20260503213345 17 338 1.6 8.0 0.00 0.03 0.00 45 1019.2
20260503213128 17 273 1.6 16.1 0.00 0.03 0.00 47 1019.2
20260503213049 17 186 1.6 16.1 0.00 0.03 0.00 46 1019.2
20260503213037 17 219 1.6 16.1 0.00 0.03 0.00 45 1019.2
20260503212850 17 243 1.6 16.1 0.00 0.03 0.00 49 1019.2
20260503212838 17 175 1.6 16.1 0.00 0.03 0.00 46 1019.2
20260503212622 17 332 1.6 16.1 0.00 0.03 0.00 49 1019.2
20260503212513 17 332 1.6 16.1 0.00 0.03 0.00 45 1019.1
20260503212413 17 290 1.6 16.1 0.00 0.03 0.00 46 1019.2
20260503212339 17 170 3.2 16.1 0.00 0.03 0.00 45 1019.2
20260503212327 17 41 3.2 16.1 0.00 0.03 0.00 48 1019.2
20260503212202 17 297 3.2 16.1 0.00 0.03 0.00 45 1019.3
20260503212147 17 167 3.2 16.1 0.00 0.03 0.00 45 1019.3
20260503212024 17 32 3.2 16.1 0.00 0.03 0.00 44 1019.3
20260503211858 17 322 3.2 16.1 0.00 0.03 0.00 44 1019.4
20260503211843 17 297 3.2 16.1 0.00 0.03 0.00 46 1019.4
20260503211721 17 286 3.2 16.1 0.00 0.03 0.00 45 1019.4
20260503211500 17 62 3.2 16.1 0.00 0.03 0.00 44 1019.5
20260503211400 17 271 3.2 16.1 0.00 0.03 0.00 43 1019.5
20260503211329 17 277 3.2 14.5 0.00 0.03 0.00 44 1019.5
20260503211316 17 177 1.6 16.1 0.00 0.03 0.00 45 1019.5
20260503211100 17 100 3.2 14.5 0.00 0.03 0.00 46 1019.5
20260503210952 17 55 3.2 16.1 0.00 0.03 0.00 48 1019.6
20260503210850 17 51 3.2 16.1 0.00 0.03 0.00 47 1019.6
20260503210749 17 51 4.8 16.1 0.00 0.03 0.00 49 1019.6
20260503210651 17 59 3.2 16.1 0.00 0.03 0.00 46 1019.6
20260503210550 17 37 3.2 16.1 0.00 0.03 0.00 46 1019.6
20260503210444 17 163 3.2 16.1 0.00 0.03 0.00 46 1019.6
20260503210353 17 269 1.6 11.3 0.00 0.03 0.00 45 1019.6
20260503210345 17 179 3.2 16.1 0.00 0.03 0.00 43 1019.6
20260503210338 17 224 1.6 11.3 0.00 0.03 0.00 44 1019.6
20260503210333 17 176 3.2 16.1 0.00 0.03 0.00 45 1019.6
20260503210317 17 207 3.2 16.1 0.00 0.03 0.00 43 1019.7
20260503210303 17 198 3.2 16.1 0.00 0.03 0.00 42 1019.6
20260503210023 17 134 1.6 12.9 0.00 0.03 0.00 47 1019.6
20260503205859 17 188 1.6 11.3 0.00 0.03 0.00 45 1019.6
20260503205843 17 174 1.6 9.7 0.00 0.03 0.00 48 1019.6
20260503205732 17 188 1.6 11.3 0.00 0.03 0.00 43 1019.6
20260503205717 17 269 1.6 9.7 0.00 0.03 0.00 48 1019.6
20260503205443 17 190 3.2 11.3 0.00 0.03 0.00 46 1019.7
20260503205432 17 269 1.6 11.3 0.00 0.03 0.00 44 1019.7
20260503205413 17 323 1.6 11.3 0.00 0.03 0.00 44 1019.6
20260503205020 17 309 3.2 11.3 0.00 0.03 0.00 44 1019.8
20260503205003 17 293 3.2 11.3 0.00 0.03 0.00 46 1019.6
20260503204840 17 217 1.6 11.3 0.00 0.03 0.00 44 1019.6
20260503204624 17 296 3.2 11.3 0.00 0.03 0.00 43 1019.7
20260503204522 17 309 3.2 11.3 0.00 0.03 0.00 42 1019.7
20260503204416 17 355 3.2 12.9 0.00 0.03 0.00 44 1019.7
20260503204315 17 300 3.2 12.9 0.00 0.03 0.00 44 1019.7
20260503204216 17 342 3.2 12.9 0.00 0.03 0.00 43 1019.7
20260503204116 17 300 3.2 12.9 0.00 0.03 0.00 41 1019.7
20260503204016 17 300 3.2 12.9 0.00 0.03 0.00 42 1019.6
20260503203911 17 282 3.2 12.9 0.00 0.03 0.00 41 1019.6
20260503203809 17 171 3.2 12.9 0.00 0.03 0.00 42 1019.7
20260503203709 17 206 3.2 12.9 0.00 0.03 0.00 42 1019.7
20260503203634 17 165 1.6 11.3 0.00 0.03 0.00 46 1019.7
20260503203622 17 200 1.6 12.9 0.00 0.03 0.00 43 1019.8
20260503203402 17 334 1.6 11.3 0.00 0.03 0.00 45 1019.7
20260503203259 17 331 3.2 11.3 0.00 0.03 0.00 45 1019.7
20260503203200 17 326 3.2 11.3 0.00 0.03 0.00 42 1019.8
20260503203100 17 173 3.2 11.3 0.00 0.03 0.00 41 1019.7
20260503203000 17 190 3.2 11.3 0.00 0.03 0.00 45 1019.8
20260503202924 17 204 3.2 11.3 0.00 0.03 0.00 45 1019.9
20260503202912 17 199 3.2 11.3 0.00 0.03 0.00 45 1019.8
20260503202656 17 297 3.2 11.3 0.00 0.03 0.00 44 1019.8
20260503202556 17 312 3.2 11.3 0.00 0.03 0.00 43 1019.9
20260503202454 17 263 3.2 11.3 0.00 0.03 0.00 42 1019.8
20260503202345 17 321 3.2 11.3 0.00 0.03 0.00 44 1019.8
20260503202246 17 213 3.2 11.3 0.00 0.03 0.00 47 1019.9
20260503202145 17 230 1.6 9.7 0.00 0.03 0.00 47 1020.0
20260503202046 17 233 1.6 9.7 0.00 0.03 0.00 45 1019.9
20260503202004 17 305 1.6 8.0 0.00 0.03 0.00 49 1020.1
20260503201954 17 227 1.6 8.0 0.00 0.03 0.00 45 1019.9
20260503201737 17 313 1.6 8.0 0.00 0.03 0.00 49 1020.0
20260503201637 17 355 1.6 8.0 0.00 0.03 0.00 56 1020.0
20260503201538 17 355 3.2 9.7 0.00 0.03 0.00 50 1020.1
20260503201438 17 315 3.2 9.7 0.00 0.03 0.00 46 1020.1
20260503201335 17 310 3.2 9.7 0.00 0.03 0.00 45 1020.1
20260503201303 17 17 3.2 14.5 0.00 0.03 0.00 50 1020.3
20260503201251 17 333 3.2 12.9 0.00 0.03 0.00 47 1020.2
20260503201102 17 323 3.2 14.5 0.00 0.03 0.00 49 1020.3
20260503201050 17 336 3.2 14.5 0.00 0.03 0.00 48 1020.2
20260503200823 17 344 3.2 14.5 0.00 0.03 0.00 47 1020.3
20260503200724 17 147 4.8 14.5 0.00 0.03 0.00 48 1020.3
20260503200623 17 175 3.2 14.5 0.00 0.03 0.00 45 1020.3
20260503200523 17 217 3.2 14.5 0.00 0.03 0.00 43 1020.4
20260503200449 17 221 3.2 14.5 0.00 0.03 0.00 45 1020.4
20260503200437 17 207 3.2 14.5 0.00 0.03 0.00 46 1020.4
20260503200224 17 189 3.2 14.5 0.00 0.03 0.00 45 1020.4
20260503200124 17 235 3.2 11.3 0.00 0.03 0.00 47 1020.4
20260503200024 17 153 3.2 11.3 0.00 0.03 0.00 46 1020.4
20260503195923 17 218 3.2 11.3 0.00 0.03 0.00 44 1020.4
20260503195823 17 194 3.2 11.3 0.00 0.03 0.00 45 1020.4
20260503195815 17 176 3.2 11.3 0.00 0.03 0.00 44 1020.3
20260503195811 17 347 3.2 11.3 0.00 0.03 0.00 43 1020.4
20260503195756 17 277 3.2 11.3 0.00 0.03 0.00 47 1020.4
20260503195423 17 9 3.2 11.3 0.00 0.03 0.00 50 1020.5
20260503195323 17 332 3.2 11.3 0.00 0.03 0.00 50 1020.5
20260503195224 17 327 3.2 11.3 0.00 0.03 0.00 47 1020.5
20260503195119 17 327 3.2 11.3 0.00 0.03 0.00 45 1020.4
20260503195019 17 329 3.2 11.3 0.00 0.03 0.00 44 1020.4
20260503194920 17 110 3.2 8.0 0.00 0.03 0.00 47 1020.4
20260503194819 17 138 3.2 8.0 0.00 0.03 0.00 42 1020.4
20260503194719 17 315 3.2 9.7 0.00 0.03 0.00 44 1020.5
20260503194619 17 336 3.2 9.7 0.00 0.03 0.00 43 1020.4
20260503194548 17 30 3.2 9.7 0.00 0.03 0.00 45 1020.5
20260503194535 17 345 3.2 9.7 0.00 0.03 0.00 41 1020.4
20260503194345 17 28 3.2 9.7 0.00 0.03 0.00 44 1020.5
20260503194335 17 355 3.2 9.7 0.00 0.03 0.00 46 1020.5
20260503194120 17 198 3.2 9.7 0.00 0.03 0.00 40 1020.6
20260503194045 17 223 3.2 11.3 0.00 0.03 0.00 42 1020.6
20260503194035 17 194 3.2 11.3 0.00 0.03 0.00 40 1020.6
20260503193840 17 45 4.8 11.3 0.00 0.03 0.00 45 1020.7
20260503193836 17 202 4.8 14.5 0.00 0.03 0.00 44 1020.7
20260503193825 17 173 3.2 11.3 0.00 0.03 0.00 41 1020.7
20260503193806 17 253 3.2 11.3 0.00 0.03 0.00 43 1020.7
20260503193650 17 123 4.8 14.5 0.00 0.03 0.00 43 1020.7
20260503193638 17 296 3.2 11.3 0.00 0.03 0.00 44 1020.7
20260503193452 17 160 4.8 14.5 0.00 0.03 0.00 48 1020.7
20260503193257 17 150 4.8 14.5 0.00 0.03 0.00 45 1020.7
20260503193129 17 331 4.8 14.5 0.00 0.03 0.00 43 1020.7
20260503192953 17 311 4.8 14.5 0.00 0.03 0.00 44 1020.8
20260503192936 17 186 4.8 14.5 0.00 0.03 0.00 47 1020.8
20260503192706 17 325 4.8 14.5 0.00 0.03 0.00 45 1020.8
20260503192608 17 323 3.2 14.5 0.00 0.03 0.00 45 1020.7
20260503192558 17 111 4.8 14.5 0.00 0.03 0.00 46 1020.9
20260503192542 17 333 3.2 14.5 0.00 0.03 0.00 44 1020.9
20260503192427 17 342 3.2 12.9 0.00 0.03 0.00 45 1020.9
20260503192415 17 331 3.2 14.5 0.00 0.03 0.00 47 1020.8
20260503192401 17 5 3.2 12.9 0.00 0.03 0.00 48 1020.9
20260503192237 17 355 3.2 12.9 0.00 0.03 0.00 44 1020.9
20260503192107 17 338 4.8 12.9 0.00 0.03 0.00 44 1021.0
20260503191944 17 292 4.8 14.5 0.00 0.03 0.00 45 1021.0
20260503191821 17 340 4.8 14.5 0.00 0.03 0.00 45 1021.0
20260503191603 17 137 4.8 14.5 0.00 0.03 0.00 45 1021.0
20260503191553 17 204 4.8 14.5 0.00 0.03 0.00 44 1021.0
20260503191538 17 149 4.8 14.5 0.00 0.03 0.00 44 1021.0
20260503191414 17 217 4.8 14.5 0.00 0.03 0.00 46 1021.0
20260503191228 17 180 3.2 14.5 0.00 0.03 0.00 43 1021.0
20260503191215 17 149 4.8 14.5 0.00 0.03 0.00 44 1020.9
20260503190959 17 214 3.2 14.5 0.00 0.03 0.00 41 1021.0
20260503190928 17 204 3.2 14.5 0.00 0.03 0.00 47 1021.1
20260503190916 17 178 3.2 14.5 0.00 0.03 0.00 43 1021.0
20260503190650 17 84 1.6 14.5 0.00 0.03 0.00 49 1021.0
20260503190549 17 171 1.6 14.5 0.00 0.03 0.00 52 1021.2
20260503190449 17 170 3.2 17.7 0.00 0.03 0.00 50 1021.2
20260503190348 16 355 3.2 17.7 0.00 0.03 0.00 45 1021.2
20260503190248 16 345 3.2 17.7 0.00 0.03 0.00 43 1021.2
20260503190148 16 236 3.2 17.7 0.00 0.03 0.00 43 1021.2
20260503190048 16 5 3.2 17.7 0.00 0.03 0.00 43 1021.2
20260503185947 17 68 3.2 17.7 0.00 0.03 0.00 44 1021.4
20260503185848 17 153 4.8 17.7 0.00 0.03 0.00 47 1021.2
20260503185747 16 149 4.8 17.7 0.00 0.03 0.00 47 1021.2
20260503185648 16 185 4.8 17.7 0.00 0.03 0.00 45 1021.2
20260503185545 16 194 3.2 17.7 0.00 0.03 0.00 42 1021.1
20260503185446 16 298 3.2 16.1 0.00 0.03 0.00 45 1021.2
20260503185346 16 342 3.2 16.1 0.00 0.03 0.00 44 1021.2
20260503185245 17 355 3.2 16.1 0.00 0.03 0.00 43 1021.4
20260503185145 17 341 3.2 16.1 0.00 0.03 0.00 44 1021.4
20260503185045 17 305 3.2 16.1 0.00 0.03 0.00 45 1021.4
20260503184944 17 340 3.2 16.1 0.00 0.03 0.00 47 1021.4
20260503184913 17 32 3.2 16.1 0.00 0.03 0.00 47 1021.5
20260503184902 17 302 3.2 16.1 0.00 0.03 0.00 45 1021.2
20260503184646 17 252 3.2 16.1 0.00 0.03 0.00 46 1021.5
20260503184545 16 355 4.8 16.1 0.00 0.03 0.00 47 1021.5
20260503184445 16 301 4.8 16.1 0.00 0.03 0.00 42 1021.5
20260503184345 17 331 4.8 16.1 0.00 0.03 0.00 42 1021.6
20260503184247 17 234 4.8 16.1 0.00 0.03 0.00 51 1021.5
20260503184241 16 191 4.8 16.1 0.00 0.03 0.00 46 1021.5
20260503184225 17 321 4.8 16.1 0.00 0.03 0.00 49 1021.5
20260503184101 16 213 4.8 16.1 0.00 0.03 0.00 46 1021.5
20260503183845 16 218 4.8 16.1 0.00 0.03 0.00 45 1021.6
20260503183745 16 198 4.8 16.1 0.00 0.03 0.00 44 1021.5
20260503183646 16 181 4.8 16.1 0.00 0.03 0.00 44 1021.5
20260503183545 16 157 3.2 16.1 0.00 0.03 0.00 45 1021.6
20260503183446 16 188 3.2 14.5 0.00 0.03 0.00 47 1021.6
20260503183344 16 217 3.2 9.7 0.00 0.03 0.00 47 1021.7
20260503183245 16 346 3.2 9.7 0.00 0.03 0.00 45 1021.6
20260503183145 16 98 3.2 12.9 0.00 0.03 0.00 44 1021.7
20260503183045 16 198 1.6 12.9 0.00 0.03 0.00 48 1021.6
20260503182946 16 192 1.6 12.9 0.00 0.03 0.00 50 1021.7
20260503182842 16 0 1.6 12.9 0.00 0.03 0.00 51 1021.7
20260503182741 16 10 1.6 12.9 0.00 0.03 0.00 44 1021.7
20260503182710 16 15 1.6 12.9 0.00 0.03 0.00 46 1021.7
20260503182658 16 313 1.6 12.9 0.00 0.03 0.00 51 1021.7
20260503182442 16 15 1.6 12.9 0.00 0.03 0.00 50 1021.7
20260503182342 16 16 1.6 12.9 0.00 0.03 0.00 51 1021.7
20260503182241 16 16 3.2 12.9 0.00 0.03 0.00 51 1021.8
20260503182141 16 17 3.2 14.5 0.00 0.03 0.00 47 1021.8
20260503182042 16 17 3.2 14.5 0.00 0.03 0.00 54 1021.8
20260503181941 16 17 3.2 14.5 0.00 0.03 0.00 48 1021.7
20260503181909 16 153 4.8 14.5 0.00 0.03 0.00 45 1021.7
20260503181857 16 112 4.8 14.5 0.00 0.03 0.00 50 1021.8
20260503181640 16 156 4.8 14.5 0.00 0.03 0.00 43 1021.8
20260503181541 16 175 4.8 14.5 0.00 0.03 0.00 44 1021.8
20260503181441 16 160 3.2 14.5 0.00 0.03 0.00 44 1021.8
20260503181341 16 229 3.2 14.5 0.00 0.03 0.00 47 1021.8
20260503181242 16 192 3.2 14.5 0.00 0.03 0.00 46 1021.9
20260503181141 16 162 1.6 9.7 0.00 0.03 0.00 45 1021.9
20260503181040 16 163 1.6 9.7 0.00 0.03 0.00 48 1021.8
20260503180941 16 223 1.6 9.7 0.00 0.03 0.00 45 1021.9
20260503180842 16 201 1.6 9.7 0.00 0.03 0.00 47 1021.9
20260503180742 16 203 1.6 9.7 0.00 0.03 0.00 50 1021.8
20260503180641 16 194 1.6 9.7 0.00 0.03 0.00 47 1021.9
20260503180607 15 231 1.6 9.7 0.00 0.03 0.00 46 1021.9
20260503180556 16 200 1.6 9.7 0.00 0.03 0.00 48 1021.7
20260503180341 15 339 1.6 9.7 0.00 0.03 0.00 46 1021.9
20260503180242 15 95 1.6 9.7 0.00 0.03 0.00 48 1021.9
20260503180141 15 94 1.6 9.7 0.00 0.03 0.00 46 1021.9
20260503180040 15 130 1.6 9.7 0.00 0.03 0.00 49 1021.9
20260503180012 15 131 1.6 9.7 0.00 0.03 0.00 45 1021.9
20260503175957 15 130 1.6 9.7 0.00 0.03 0.00 46 1021.9
20260503175741 15 131 1.6 9.7 0.00 0.03 0.00 43 1021.9
20260503175730 15 314 1.6 12.9 0.00 0.03 0.00 44 1022.0
20260503175726 15 314 1.6 12.9 0.00 0.03 0.00 46 1022.0
20260503175711 15 132 1.6 9.7 0.00 0.03 0.00 45 1022.0
20260503175554 15 305 1.6 12.9 0.00 0.03 0.00 51 1022.1
20260503175544 15 119 1.6 12.9 0.00 0.03 0.00 45 1022.0
20260503175524 15 151 1.6 12.9 0.00 0.03 0.00 49 1022.1
20260503175038 15 197 1.6 12.9 0.00 0.03 0.00 48 1022.2
20260503175005 15 126 1.6 12.9 0.00 0.03 0.00 49 1022.1
20260503174951 15 149 1.6 12.9 0.00 0.03 0.00 46 1022.1
20260503174733 15 175 1.6 12.9 0.00 0.03 0.00 47 1022.2
20260503174701 15 351 3.2 12.9 0.00 0.03 0.00 48 1022.2
20260503174648 15 355 3.2 12.9 0.00 0.03 0.00 49 1022.2
20260503174432 15 298 3.2 12.9 0.00 0.03 0.00 51 1022.3
20260503174333 15 311 3.2 12.9 0.00 0.03 0.00 55 1022.2
20260503174231 15 23 3.2 12.9 0.00 0.03 0.00 59 1022.3
20260503174132 15 33 3.2 12.9 0.00 0.03 0.00 51 1022.2
20260503174029 15 33 3.2 12.9 0.00 0.03 0.00 52 1022.2
20260503173927 15 33 3.2 12.9 0.00 0.03 0.00 50 1022.2
20260503173827 15 33 3.2 12.9 0.00 0.03 0.00 48 1022.2
20260503173754 15 355 1.6 12.9 0.00 0.03 0.00 50 1022.2
20260503173742 15 355 3.2 12.9 0.00 0.03 0.00 49 1022.2
20260503173525 15 291 1.6 11.3 0.00 0.03 0.00 48 1022.3
20260503173425 15 291 1.6 4.8 0.00 0.03 0.00 48 1022.3
20260503173325 15 290 1.6 4.8 0.00 0.03 0.00 51 1022.3
20260503173223 15 196 1.6 4.8 0.00 0.03 0.00 51 1022.3
20260503173122 15 215 1.6 4.8 0.00 0.03 0.00 53 1022.3
20260503173020 15 207 1.6 4.8 0.00 0.03 0.00 57 1022.5
20260503172921 15 89 1.6 4.8 0.00 0.03 0.00 55 1022.4
20260503172821 15 106 1.6 9.7 0.00 0.03 0.00 52 1022.4
20260503172720 15 106 1.6 9.7 0.00 0.03 0.00 52 1022.4
20260503172646 14 289 3.2 9.7 0.00 0.03 0.00 54 1022.4
20260503172641 14 336 1.6 9.7 0.00 0.03 0.00 55 1022.4
20260503172631 15 229 1.6 9.7 0.00 0.03 0.00 56 1022.4
20260503172613 15 336 1.6 9.7 0.00 0.03 0.00 52 1022.5
20260503172336 14 311 3.2 9.7 0.00 0.03 0.00 53 1022.4
20260503172121 14 288 3.2 9.7 0.00 0.03 0.00 52 1022.3
20260503172021 14 288 3.2 9.7 0.00 0.03 0.00 52 1022.5
20260503171921 14 294 3.2 9.7 0.00 0.03 0.00 56 1022.4
20260503171821 14 5 3.2 9.7 0.00 0.03 0.00 51 1022.4
20260503171721 14 5 3.2 9.7 0.00 0.03 0.00 52 1022.5
20260503171617 14 57 1.6 9.7 0.00 0.03 0.00 50 1022.4
20260503171542 14 210 1.6 9.7 0.00 0.03 0.00 51 1022.4
20260503171529 14 207 1.6 9.7 0.00 0.03 0.00 51 1022.4
20260503171316 14 175 1.6 8.0 0.00 0.03 0.00 55 1022.4
20260503171215 14 321 1.6 8.0 0.00 0.03 0.00 51 1022.5
20260503171111 15 157 1.6 8.0 0.00 0.03 0.00 54 1022.5
20260503171040 15 184 1.6 8.0 0.00 0.03 0.00 54 1022.5
20260503171027 15 227 1.6 8.0 0.00 0.03 0.00 52 1022.5
20260503170811 15 171 1.6 8.0 0.00 0.03 0.00 54 1022.5
20260503170709 15 171 1.6 8.0 0.00 0.03 0.00 56 1022.5
20260503170604 15 170 1.6 8.0 0.00 0.03 0.00 56 1022.5
20260503170528 14 202 1.6 6.4 0.00 0.03 0.00 56 1022.5
20260503170518 14 175 1.6 8.0 0.00 0.03 0.00 56 1022.5
20260503170301 14 200 1.6 6.4 0.00 0.03 0.00 51 1022.5
20260503170159 14 40 1.6 6.4 0.00 0.03 0.00 54 1022.6
20260503160152 12 182 1.6 8.0 0.00 0.03 0.00 58 1023.2
20260503150942 11 19 0.0 6.4 0.00 0.03 0.00 64 1023.4
20260503150839 11 19 1.6 6.4 0.00 0.03 0.00 61 1023.5
20260503150737 11 19 1.6 6.4 0.00 0.03 0.00 65 1023.4
20260503150636 11 19 1.6 6.4 0.00 0.03 0.00 65 1023.4
20260503150534 11 20 1.6 6.4 0.00 0.03 0.00 64 1023.4
20260503150434 11 20 1.6 6.4 0.00 0.03 0.00 63 1023.5
20260503150358 10 18 1.6 6.4 0.00 0.03 0.00 58 1023.4
20260503150348 10 19 1.6 6.4 0.00 0.03 0.00 60 1023.4
20260503150121 10 16 1.6 6.4 0.00 0.03 0.00 58 1023.4
20260503140234 8 164 0.0 4.8 0.00 0.03 0.00 89 1023.2
20260503140134 8 165 0.0 4.8 0.00 0.03 0.00 90 1023.3
20260503131356 6 134 0.0 4.8 0.00 0.03 0.00 95 1023.1
20260503131140 6 134 0.0 4.8 0.00 0.03 0.00 95 1023.2
20260503131106 6 133 0.0 4.8 0.00 0.03 0.00 95 1023.2
20260503131055 6 133 0.0 4.8 0.00 0.03 0.00 95 1023.2
20260503130835 6 133 0.0 4.8 0.00 0.03 0.00 95 1023.2
20260503130732 6 133 0.0 4.8 0.00 0.03 0.00 95 1023.2
20260503130633 6 133 0.0 4.8 0.00 0.03 0.00 95 1023.1
20260503130558 6 133 0.0 4.8 0.00 0.03 0.00 95 1023.2
20260503130547 6 133 0.0 4.8 0.00 0.03 0.00 95 1023.2
20260503130333 6 132 0.0 1.6 0.00 0.03 0.00 95 1023.2
20260503130256 6 132 0.0 4.8 0.00 0.03 0.00 95 1023.3
20260503130246 6 132 0.0 4.8 0.00 0.03 0.00 95 1023.2
20260503120123 4 128 0.0 1.6 0.00 0.03 0.00 94 1022.8
20260503110739 4 328 0.0 1.6 0.00 0.03 0.00 94 1022.1
20260503110639 4 328 0.0 1.6 0.00 0.03 0.00 94 1022.1
20260503110600 4 328 0.0 1.6 0.00 0.03 0.00 94 1022.1
20260503110550 4 328 0.0 1.6 0.00 0.03 0.00 94 1022.1
20260503110334 4 328 0.0 1.6 0.00 0.03 0.00 94 1022.1
20260503110234 4 328 0.0 1.6 0.00 0.03 0.00 94 1022.1
20260503110157 4 328 0.0 1.6 0.00 0.03 0.00 94 1022.0
20260503110146 4 328 0.0 1.6 0.00 0.03 0.00 94 1021.9
20260503100228 4 328 0.0 0.0 0.00 0.03 0.00 94 1021.6
20260503100126 4 328 0.0 0.0 0.00 0.03 0.00 94 1021.5
20260503090433 5 328 0.0 0.0 0.00 0.03 0.00 94 1021.2
20260503090418 5 328 0.0 0.0 0.00 0.03 0.00 94 1021.2
20260503081621 5 328 0.0 0.0 0.00 0.03 0.00 94 1021.0
20260503081521 5 328 0.0 0.0 0.00 0.03 0.00 94 1021.1
20260503081514 5 328 0.0 0.0 0.00 0.03 0.00 94 1021.0
20260503081459 5 328 0.0 0.0 0.00 0.03 0.00 94 1021.0
20260503081336 5 328 0.0 0.0 0.00 0.03 0.00 94 1021.0
20260503081121 5 328 0.0 0.0 0.00 0.03 0.00 94 1021.0
20260503081023 5 328 0.0 0.0 0.00 0.03 0.00 94 1021.0
20260503080945 5 328 0.0 0.0 0.00 0.03 0.00 94 1020.9
20260503080934 5 328 0.0 0.0 0.00 0.03 0.00 94 1020.9
20260503080715 5 328 0.0 0.0 0.00 0.03 0.00 94 1021.0
20260503080615 5 328 0.0 0.0 0.00 0.03 0.00 94 1021.0
20260503080516 5 328 0.0 0.0 0.00 0.03 0.00 93 1020.9
20260503080439 5 328 0.0 0.0 0.00 0.03 0.00 93 1021.0
20260503080428 5 328 0.0 0.0 0.00 0.03 0.00 94 1021.0
20260503080213 5 328 0.0 0.0 0.00 0.03 0.00 93 1021.0
20260503080114 5 328 0.0 0.0 0.00 0.03 0.00 93 1021.0
20260503072928 5 328 0.0 0.0 0.00 0.03 0.00 94 1021.1
20260503072826 5 328 0.0 0.0 0.00 0.03 0.00 94 1021.1
20260503072720 5 328 0.0 0.0 0.00 0.03 0.00 94 1021.1
20260503072618 5 328 0.0 0.0 0.00 0.03 0.00 94 1021.1
20260503072520 5 328 0.0 0.0 0.00 0.03 0.00 94 1021.0
20260503072419 5 328 0.0 0.0 0.00 0.03 0.00 94 1021.0
20260503072319 5 328 0.0 0.0 0.00 0.03 0.00 94 1021.1
20260503072219 5 328 0.0 0.0 0.00 0.03 0.00 94 1021.0
20260503072120 5 328 0.0 0.0 0.00 0.03 0.00 94 1021.0
20260503072019 5 328 0.0 0.0 0.00 0.03 0.00 93 1021.0
20260503071917 5 328 0.0 0.0 0.00 0.03 0.00 93 1021.0
20260503071817 5 328 0.0 0.0 0.00 0.03 0.00 93 1021.0
20260503071717 5 328 0.0 0.0 0.00 0.03 0.00 93 1021.0
20260503071613 5 328 0.0 0.0 0.00 0.03 0.00 93 1021.0
20260503071514 5 328 0.0 0.0 0.00 0.03 0.00 93 1021.0
20260503071414 5 328 0.0 0.0 0.00 0.03 0.00 93 1021.0
20260503071314 5 328 0.0 0.0 0.00 0.03 0.00 93 1021.0
20260503071214 5 328 0.0 0.0 0.00 0.03 0.00 93 1021.0
20260503071111 5 328 0.0 0.0 0.00 0.03 0.00 93 1020.9
20260503071012 5 328 0.0 0.0 0.00 0.03 0.00 93 1020.9
20260503070909 5 328 0.0 0.0 0.00 0.03 0.00 93 1020.9
20260503070810 5 328 0.0 0.0 0.00 0.03 0.00 93 1020.9
20260503070709 5 328 0.0 0.0 0.00 0.03 0.00 93 1020.8
20260503070607 5 328 0.0 0.0 0.00 0.03 0.00 93 1020.8
20260503070559 5 328 0.0 0.0 0.00 0.03 0.00 93 1020.9
20260503070543 5 328 0.0 0.0 0.00 0.03 0.00 93 1020.9
20260503070422 5 328 0.0 0.0 0.00 0.03 0.00 93 1020.9
20260503070208 5 328 0.0 0.0 0.00 0.03 0.00 93 1020.9
20260503070106 5 328 0.0 0.0 0.00 0.03 0.00 93 1020.9
20260503060253 5 328 0.0 0.0 0.00 0.03 0.00 93 1020.8
20260503060154 5 328 0.0 0.0 0.00 0.03 0.00 93 1020.8
20260503055127 6 328 0.0 0.0 0.00 0.03 0.00 93 1020.8
20260503055113 5 328 0.0 0.0 0.00 0.03 0.00 93 1020.9
20260503054740 6 328 0.0 0.0 0.00 0.03 0.00 93 1020.8
20260503054640 6 328 0.0 0.0 0.00 0.03 0.00 93 1020.8
20260503054538 6 328 0.0 0.0 0.00 0.03 0.00 93 1020.8
20260503054457 6 328 0.0 0.0 0.00 0.03 0.00 93 1020.8
20260503054452 6 328 0.0 0.0 0.00 0.03 0.00 93 1020.7
20260503054442 6 328 0.0 0.0 0.00 0.03 0.00 93 1020.8
20260503054426 6 328 0.0 0.0 0.00 0.03 0.00 93 1020.8
20260503054303 6 328 0.0 0.0 0.00 0.03 0.00 93 1020.8
20260503053929 6 328 0.0 0.0 0.00 0.03 0.00 93 1020.8
20260503053826 6 328 0.0 0.0 0.00 0.03 0.00 93 1020.8
20260503053724 6 328 0.0 0.0 0.00 0.03 0.00 93 1020.8
20260503053623 6 328 0.0 0.0 0.00 0.03 0.00 93 1020.8
20260503053522 6 328 0.0 0.0 0.00 0.03 0.00 93 1020.8
20260503053443 6 328 0.0 0.0 0.00 0.03 0.00 93 1020.8
20260503053432 6 328 0.0 0.0 0.00 0.03 0.00 93 1020.8
20260503053217 6 328 0.0 0.0 0.00 0.03 0.00 93 1020.8
20260503053116 6 328 0.0 0.0 0.00 0.03 0.00 93 1020.8
20260503053016 6 328 0.0 0.0 0.00 0.03 0.00 93 1020.9
20260503052913 6 328 0.0 0.0 0.00 0.03 0.00 93 1020.8
20260503052813 6 328 0.0 0.0 0.00 0.03 0.00 93 1020.8
20260503052710 6 328 0.0 0.0 0.00 0.03 0.00 93 1020.8
20260503052612 6 328 0.0 0.0 0.00 0.03 0.00 93 1020.8
20260503052508 6 328 0.0 0.0 0.00 0.03 0.00 93 1020.9
20260503052407 6 328 0.0 0.0 0.00 0.03 0.00 93 1020.9
20260503052328 6 328 0.0 0.0 0.00 0.03 0.00 93 1020.8
20260503052316 6 328 0.0 0.0 0.00 0.03 0.00 93 1020.9
20260503052128 6 328 0.0 0.0 0.00 0.03 0.00 93 1020.8
20260503052115 6 328 0.0 0.0 0.00 0.03 0.00 93 1020.8
20260503051857 6 328 0.0 0.0 0.00 0.03 0.00 93 1020.8
20260503051753 6 328 0.0 0.0 0.00 0.03 0.00 93 1020.9
20260503051652 6 328 0.0 0.0 0.00 0.03 0.00 93 1020.8
20260503051618 6 328 0.0 0.0 0.00 0.03 0.00 93 1020.8
20260503051607 6 328 0.0 0.0 0.00 0.03 0.00 93 1020.8
20260503051351 6 328 0.0 0.0 0.00 0.03 0.00 93 1020.8
20260503051247 6 328 0.0 0.0 0.00 0.03 0.00 93 1020.8
20260503051145 6 328 0.0 0.0 0.00 0.03 0.00 93 1020.8
20260503051045 6 328 0.0 0.0 0.00 0.03 0.00 93 1020.8
20260503050945 6 328 0.0 0.0 0.00 0.03 0.00 93 1020.9
20260503050845 6 328 0.0 0.0 0.00 0.03 0.00 93 1020.8
20260503050741 6 328 0.0 0.0 0.00 0.03 0.00 93 1020.9
20260503050640 6 328 0.0 0.0 0.00 0.03 0.00 93 1020.9
20260503050539 6 328 0.0 0.0 0.00 0.03 0.00 93 1020.8
20260503050523 6 328 0.0 0.0 0.00 0.03 0.00 93 1020.9
20260503050518 6 328 0.0 0.0 0.00 0.03 0.00 93 1020.9
20260503050505 6 328 0.0 0.0 0.00 0.03 0.00 93 1020.8
20260503050132 6 328 0.0 0.0 0.00 0.03 0.00 93 1020.9
20260503050030 6 328 0.0 0.0 0.00 0.03 0.00 93 1020.8
20260503045930 6 328 0.0 0.0 0.00 0.03 0.03 93 1020.8
20260503045831 6 328 0.0 0.0 0.00 0.03 0.03 93 1020.8
20260503045724 6 328 0.0 0.0 0.00 0.03 0.03 92 1020.8
20260503045625 6 328 0.0 0.0 0.00 0.03 0.03 93 1020.7
20260503045551 6 328 0.0 1.6 0.00 0.03 0.03 92 1020.7
20260503045540 6 328 0.0 1.6 0.00 0.03 0.03 93 1020.7
20260503045346 6 328 0.0 1.6 0.00 0.03 0.03 92 1020.6
20260503045335 6 328 0.0 1.6 0.00 0.03 0.03 92 1020.7
20260503045119 6 328 0.0 1.6 0.00 0.03 0.03 93 1020.6
20260503045019 6 328 0.0 1.6 0.00 0.03 0.03 93 1020.6
20260503044917 6 328 0.0 1.6 0.00 0.03 0.03 93 1020.6
20260503044815 6 328 0.0 1.6 0.00 0.03 0.03 92 1020.7
20260503044716 6 328 0.0 1.6 0.00 0.03 0.03 92 1020.6
20260503044612 6 328 0.0 1.6 0.00 0.03 0.03 93 1020.6
20260503044603 6 328 0.0 1.6 0.00 0.03 0.03 92 1020.6
20260503044548 6 328 0.0 1.6 0.00 0.03 0.03 92 1020.6
20260503044423 6 328 0.0 1.6 0.00 0.03 0.03 92 1020.6
20260503044207 6 328 0.0 1.6 0.00 0.03 0.03 92 1020.5
20260503044107 6 328 0.0 1.6 0.00 0.03 0.03 92 1020.6
20260503044008 6 328 0.0 1.6 0.00 0.03 0.03 92 1020.6
20260503043906 6 328 0.0 1.6 0.00 0.03 0.03 92 1020.6
20260503043803 6 328 0.0 1.6 0.00 0.03 0.03 92 1020.5
20260503043658 6 328 0.0 1.6 0.00 0.03 0.03 92 1020.5
20260503043623 6 328 0.0 0.0 0.00 0.03 0.03 92 1020.6
20260503043612 6 328 0.0 1.6 0.00 0.03 0.03 92 1020.5
20260503043356 6 328 0.0 0.0 0.00 0.03 0.03 92 1020.5
20260503043253 6 328 0.0 0.0 0.00 0.03 0.03 92 1020.5
20260503043151 6 328 0.0 0.0 0.00 0.03 0.03 92 1020.5
20260503043051 6 328 0.0 0.0 0.00 0.03 0.03 92 1020.5
20260503042951 6 328 0.0 1.6 0.00 0.03 0.03 92 1020.5
20260503042848 6 328 0.0 1.6 0.00 0.03 0.03 92 1020.5
20260503042747 6 328 0.0 1.6 0.00 0.03 0.03 92 1020.5
20260503042646 6 328 0.0 1.6 0.00 0.03 0.03 92 1020.4
20260503042544 6 328 0.0 1.6 0.00 0.03 0.03 92 1020.5
20260503042445 6 328 0.0 1.6 0.00 0.03 0.03 92 1020.5
20260503042342 6 328 0.0 1.6 0.00 0.03 0.03 92 1020.5
20260503042306 6 328 0.0 1.6 0.00 0.03 0.03 92 1020.5
20260503042255 6 328 0.0 1.6 0.00 0.03 0.03 92 1020.6